Wind_Speed
1 1 1 1 2 2 1 1 0 1 1 1 1 1 1 2 2 3 4 4 4 5 5 5 4 5 5 5 5 5 6 6 6 5 5 5 5 5 5 4 4 5 4
1 2 2 1 0 0 1 1 1 1 1 2 2 2 2 3 3 3 4 4 5 5 6 5 6 6 6 6 6 6 6 6 5 5 5 5 4 4 4 5 5 5 5
1 1 2 2 1 1 1 1 1 2 2 3 3 3 3 3 3 4 4 5 5 6 6 6 6 7 7 7 6 6 6 6 6 5 5 5 5 5 5 5 5 5 5
1 2 2 2 2 1 2 2 3 3 3 4 4 4 4 4 4 5 6 6 6 7 7 7 7 8 8 7 7 7 6 7 6 7 7 6 6 6 6 6 6 6 6
1 2 3 3 3 3 3 4 4 4 4 4 5 5 5 5 6 7 7 7 7 8 8 8 8 9 9 8 8 7 7 7 7 7 7 7 7 7 7 7 7 7 7
2 3 4 4 4 4 4 4 5 5 5 5 5 6 6 7 7 7 8 8 9 9 9 8 8 9 9 10 9 8 8 8 8 9 8 8 8 8 7 7 8 8 8
3 3 4 4 4 4 5 5 5 5 5 5 5 6 6 7 7 8 8 8 8 9 9 8 8 9 9 9 9 9 9 9 9 9 9 9 9 9 8 8 9 9 9
3 4 4 5 5 5 5 6 6 6 6 5 5 5 6 6 7 7 8 8 8 8 8 8 8 8 8 8 9 9 10 10 10 10 10 10 10 10 10 9 10 10 10
4 4 5 6 6 7 7 7 7 7 7 6 7 7 7 7 7 7 8 8 8 8 9 9 8 8 8 8 9 10 11 11 10 10 11 11 10 10 10 10 10 11 11
5 5 5 6 7 8 8 8 8 8 7 7 7 8 8 8 8 8 8 9 9 8 8 8 9 8 8 9 9 9 10 11 11 11 11 11 11 11 11 11 12 12 12
5 5 6 6 7 8 8 7 7 7 8 7 8 8 8 8 8 8 9 9 9 9 9 9 8 8 9 9 9 9 10 10 10 10 11 11 11 12 12 12 12 13 13
5 5 5 6 7 7 6 7 7 7 8 7 8 8 8 9 8 9 9 10 10 10 10 10 10 9 9 10 11 11 11 11 11 11 11 11 11 11 11 11 12 13 13
6 6 6 6 6 6 6 6 6 7 7 8 8 8 9 9 9 9 10 10 9 10 10 10 11 11 11 11 11 11 12 12 13 13 12 13 12 12 11 12 13 12 11
7 7 7 7 6 6 5 6 6 7 7 8 8 9 9 9 9 9 9 10 9 10 10 11 11 12 12 13 13 13 13 13 13 13 13 14 15 14 13 13 13 13 12
8 7 7 7 7 7 6 7 7 8 8 9 10 10 9 9 9 9 9 10 10 10 10 11 11 12 13 13 14 14 14 14 14 14 14 15 15 14 14 14 14 14 13
8 7 7 7 7 7 8 8 8 8 9 10 10 10 10 9 9 9 10 10 10 10 10 10 11 12 13 14 14 14 14 14 14 14 15 15 15 15 14 14 15 14 15
8 7 7 8 8 8 8 9 9 9 10 10 10 10 10 10 10 11 11 11 11 11 11 11 11 13 13 14 13 14 14 14 14 14 15 15 15 15 15 15 15 15 15
8 8 8 8 8 8 9 8 9 10 10 10 11 11 10 10 11 11 12 12 12 12 12 12 13 13 14 14 14 14 14 14 15 15 15 16 15 15 15 16 16 16 16
8 9 8 8 8 8 9 9 9 10 11 11 11 11 11 11 11 12 12 13 13 13 13 14 14 15 15 15 15 15 15 15 15 15 16 16 16 16 16 16 16 16 17
9 9 9 8 8 9 9 9 10 11 11 11 12 12 12 12 13 13 13 14 14 15 15 15 15 16 16 17 17 16 16 16 16 16 16 16 16 16 15 15 15 16 17
9 9 10 10 9 9 9 10 11 12 12 13 13 13 13 13 13 14 14 14 15 16 16 17 17 17 17 17 17 17 16 16 17 17 17 17 17 16 16 16 16 17 17
10 10 11 11 11 11 11 12 13 13 14 15 14 14 14 13 14 14 15 16 16 17 17 18 17 17 17 17 17 17 17 17 17 17 18 18 18 18 18 18 18 18 18
11 11 12 12 12 12 13 13 14 15 15 15 15 15 15 15 15 16 17 17 17 17 18 18 18 18 18 18 18 18 18 18 17 18 18 18 19 18 18 19 19 19 19
12 12 13 14 14 13 14 14 15 16 16 16 16 16 16 16 16 17 17 17 17 18 18 18 18 18 18 18 18 18 19 19 19 18 19 20 20 20 19 19 20 20 21
13 13 15 15 15 15 15 15 16 17 17 17 17 17 17 17 17 17 17 17 17 18 18 18 18 19 19 19 19 19 19 19 20 19 20 20 21 22 22 22 22 22 22
15 15 16 15 16 16 16 16 17 17 18 17 17 17 17 17 17 17 17 17 18 18 18 19 18 19 19 19 19 19 19 19 19 20 20 20 21 22 23 23 23 23 22
Wind_Direction
87 126 146 92 73 71 73 66 48 16 349 302 254 295 298 306 320 329 332 324 320 318 316 304 295 298 299 293 285 288 286 282 279 281 281 282 287 279 272 272 270 268 271
141 171 172 166 49 62 34 27 357 315 307 302 289 290 293 301 317 321 327 321 314 312 313 307 295 292 292 289 286 288 289 289 282 274 274 272 270 266 266 264 264 267 267
174 191 195 220 242 249 282 303 311 301 286 278 279 283 290 302 314 315 314 312 313 311 306 299 294 289 287 283 281 285 289 293 290 282 283 284 270 265 266 263 261 263 265
208 221 236 254 254 255 277 296 300 299 289 277 279 282 290 298 307 309 304 305 305 305 302 292 288 286 282 280 277 279 281 286 287 283 284 287 275 273 273 267 267 269 269
236 245 261 271 273 280 288 288 295 300 292 284 283 285 288 292 300 304 302 301 301 300 297 290 285 283 281 277 276 278 281 284 280 281 286 285 284 281 277 274 270 272 274
262 271 278 277 278 281 287 289 291 294 292 287 287 289 288 290 296 300 300 299 299 298 292 286 284 283 279 279 278 281 279 278 277 279 283 283 281 280 278 273 270 269 269
262 269 274 279 277 282 288 292 297 295 292 289 287 288 288 289 291 297 300 301 302 300 293 286 284 282 282 278 276 280 280 280 280 281 283 282 280 276 274 272 269 268 270
270 278 286 284 285 287 286 289 289 290 290 289 289 290 289 287 288 292 296 301 302 301 294 293 286 285 283 279 279 276 278 279 280 281 283 282 282 277 274 274 272 269 269
279 280 284 286 288 289 287 284 283 282 283 284 284 286 286 286 288 291 297 298 300 301 298 294 290 288 284 284 284 280 278 279 279 278 281 281 280 280 277 275 274 273 270
277 283 288 291 291 290 287 286 281 277 280 285 284 286 288 290 292 292 294 296 297 299 298 295 292 291 288 290 291 286 282 275 274 276 279 278 277 277 276 278 279 276 273
286 287 290 292 293 294 289 282 279 278 280 284 287 288 289 292 294 291 291 293 295 295 294 293 292 290 289 293 294 291 286 281 278 278 279 277 276 276 275 278 278 277 274
294 294 293 294 296 294 287 279 279 281 280 282 284 288 289 292 292 292 292 292 291 292 292 293 293 291 292 293 292 291 289 286 283 281 279 278 278 277 274 275 276 276 272
295 295 293 300 300 295 288 279 281 284 287 288 287 291 291 292 292 292 293 293 293 290 290 291 292 291 290 288 289 289 288 284 282 279 277 279 278 277 276 274 274 276 269
292 293 292 296 297 293 287 283 283 288 292 292 290 292 294 293 292 292 292 293 296 294 291 289 288 287 286 286 287 285 286 285 281 280 280 280 281 278 280 279 277 275 273
289 292 294 292 291 291 287 283 282 286 289 290 289 289 292 291 291 293 297 296 295 294 292 288 286 285 285 286 286 284 283 282 283 287 284 284 283 278 276 276 274 275 273
284 286 288 289 284 283 282 282 283 285 290 291 289 286 287 286 287 290 293 295 294 294 293 292 290 288 287 286 285 284 282 281 284 285 284 284 283 280 277 275 273 273 271
279 283 285 287 285 283 284 284 284 286 291 292 290 286 285 285 285 287 289 291 290 289 290 291 290 290 289 288 286 284 282 282 282 281 282 282 283 280 277 276 275 273 273
280 282 283 284 283 285 285 285 287 290 291 293 292 288 286 287 287 288 289 289 289 288 289 291 292 293 291 288 287 284 281 280 279 279 281 281 280 278 276 276 274 274 274
279 280 277 277 281 287 290 288 290 291 292 296 294 291 289 288 288 290 290 289 288 287 289 291 293 294 293 290 287 285 281 279 279 279 279 278 275 275 274 272 273 276 278
279 277 275 277 281 287 289 288 287 289 294 297 296 294 292 289 288 288 289 290 289 290 292 294 296 296 295 294 291 288 285 282 282 281 279 276 276 278 276 273 275 277 278
277 277 276 277 278 282 287 288 288 290 294 295 294 291 289 289 290 289 288 289 289 292 295 296 297 298 295 294 293 292 289 285 284 282 282 279 279 279 276 276 277 277 276
274 274 275 277 281 284 286 288 290 292 294 293 291 288 287 288 291 292 290 289 289 291 292 294 297 297 294 292 292 293 290 287 285 284 283 281 281 283 281 280 280 282 279
275 275 278 281 282 285 286 288 289 291 292 293 291 286 286 287 290 292 293 292 290 290 291 293 294 293 292 291 291 291 289 286 285 285 284 283 281 284 283 283 283 280 279
271 272 275 278 281 283 287 287 288 290 292 292 290 288 287 288 290 292 292 292 291 289 290 292 293 293 291 292 292 290 288 286 284 283 284 284 283 284 284 284 281 280 279
272 272 274 276 279 283 287 288 288 288 290 291 290 288 288 289 291 292 291 292 291 291 291 292 292 291 290 290 291 291 289 288 286 282 281 282 283 283 283 282 281 280 279
272 274 275 274 279 283 287 288 288 287 288 290 289 288 289 290 291 291 291 291 291 293 292 291 292 291 291 290 291 290 289 289 285 283 282 281 282 283 283 282 281 280 281
Height
5867 5867 5867 5867 5867 5867 5867 5868 5868 5868 5868 5868 5868 5868 5868 5868 5868 5868 5868 5867 5867 5867 5867 5867 5867 5868 5867 5867 5867 5867 5867 5867 5867 5867 5867 5867 5867 5867 5867 5867 5867 5868 5868
5866 5866 5867 5867 5867 5867 5867 5867 5867 5868 5868 5868 5868 5868 5867 5867 5867 5867 5867 5867 5867 5867 5866 5866 5867 5867 5866 5866 5866 5866 5866 5866 5866 5866 5866 5866 5866 5866 5866 5866 5866 5867 5867
5866 5866 5867 5867 5867 5867 5867 5867 5867 5867 5867 5867 5867 5867 5867 5867 5867 5866 5866 5866 5866 5866 5865 5865 5865 5865 5865 5865 5865 5865 5865 5865 5865 5865 5865 5865 5865 5865 5865 5865 5865 5865 5865
5865 5866 5866 5866 5866 5867 5867 5866 5866 5866 5866 5866 5866 5866 5866 5866 5866 5865 5865 5865 5865 5864 5864 5864 5864 5864 5864 5864 5864 5864 5864 5864 5864 5864 5864 5863 5864 5864 5864 5864 5864 5864 5864
5865 5865 5865 5866 5866 5866 5866 5866 5866 5865 5865 5865 5865 5865 5865 5865 5865 5864 5864 5864 5863 5863 5862 5862 5862 5862 5862 5862 5862 5862 5862 5862 5862 5862 5862 5862 5862 5862 5862 5862 5862 5862 5863
5864 5864 5865 5865 5865 5865 5865 5865 5865 5864 5864 5864 5864 5864 5864 5864 5864 5863 5863 5862 5861 5861 5860 5860 5861 5860 5860 5861 5861 5860 5860 5861 5861 5861 5861 5861 5861 5861 5861 5861 5861 5861 5861
5864 5864 5864 5864 5864 5864 5864 5864 5863 5863 5863 5863 5862 5862 5862 5862 5862 5862 5861 5861 5860 5859 5858 5858 5859 5859 5859 5859 5859 5859 5859 5859 5859 5859 5859 5859 5859 5859 5859 5859 5859 5859 5859
5863 5863 5863 5863 5863 5863 5862 5862 5862 5862 5862 5861 5861 5861 5861 5861 5861 5861 5860 5860 5859 5858 5857 5857 5857 5857 5857 5857 5857 5857 5857 5857 5857 5857 5857 5857 5857 5856 5856 5856 5856 5856 5856
5862 5862 5862 5861 5861 5861 5861 5860 5860 5860 5860 5860 5860 5860 5859 5859 5859 5859 5858 5858 5857 5857 5857 5856 5856 5856 5856 5856 5856 5855 5855 5855 5855 5855 5855 5855 5855 5854 5854 5854 5854 5854 5854
5861 5861 5860 5860 5859 5858 5858 5858 5858 5858 5859 5859 5858 5858 5858 5858 5858 5857 5857 5856 5856 5855 5855 5855 5854 5854 5854 5854 5854 5853 5853 5853 5853 5853 5853 5852 5852 5852 5852 5851 5851 5851 5851
5860 5859 5859 5858 5856 5855 5854 5855 5856 5856 5857 5857 5857 5857 5857 5856 5856 5856 5855 5855 5854 5854 5853 5853 5853 5853 5852 5852 5852 5851 5851 5850 5850 5850 5850 5850 5849 5849 5849 5849 5849 5848 5848
5859 5858 5857 5856 5854 5852 5851 5852 5853 5854 5855 5855 5855 5855 5855 5855 5854 5854 5853 5853 5852 5852 5851 5851 5851 5850 5850 5850 5850 5849 5849 5848 5848 5848 5848 5847 5847 5846 5846 5846 5846 5845 5844
5858 5857 5856 5855 5853 5851 5850 5851 5852 5853 5853 5854 5854 5853 5853 5853 5852 5852 5851 5851 5850 5850 5849 5849 5848 5848 5848 5848 5847 5847 5846 5846 5846 5845 5845 5845 5844 5844 5843 5843 5843 5843 5840
5856 5856 5855 5854 5853 5851 5851 5851 5851 5852 5852 5852 5852 5852 5851 5851 5850 5850 5849 5849 5848 5848 5847 5846 5846 5846 5845 5845 5844 5844 5843 5843 5842 5842 5842 5841 5841 5840 5840 5840 5840 5840 5839
5855 5855 5854 5853 5852 5852 5851 5851 5851 5851 5851 5850 5850 5850 5850 5849 5849 5848 5847 5847 5846 5845 5845 5844 5843 5843 5842 5842 5841 5841 5840 5840 5839 5839 5838 5838 5837 5836 5836 5836 5836 5836 5837
5854 5853 5853 5852 5851 5851 5851 5850 5850 5850 5849 5849 5848 5848 5848 5847 5847 5846 5846 5845 5844 5843 5842 5841 5841 5840 5839 5838 5838 5837 5837 5836 5835 5835 5834 5834 5833 5833 5832 5832 5833 5833 5833
5852 5852 5851 5851 5850 5850 5849 5849 5848 5848 5848 5847 5846 5846 5845 5845 5844 5844 5843 5842 5841 5840 5840 5839 5838 5837 5836 5835 5834 5834 5833 5832 5832 5831 5830 5830 5829 5829 5828 5828 5829 5829 5829
5850 5850 5850 5849 5849 5848 5848 5847 5847 5846 5846 5845 5844 5843 5843 5842 5842 5841 5840 5840 5839 5838 5837 5836 5835 5834 5833 5832 5831 5830 5829 5828 5828 5827 5826 5825 5824 5824 5824 5824 5824 5824 5825
5848 5848 5848 5847 5847 5846 5846 5845 5845 5844 5843 5843 5842 5841 5840 5840 5839 5838 5837 5837 5836 5835 5834 5833 5832 5830 5829 5828 5827 5826 5825 5824 5823 5823 5822 5821 5820 5820 5819 5820 5820 5820 5820
5846 5846 5846 5845 5844 5844 5844 5843 5843 5842 5841 5840 5839 5838 5837 5836 5836 5835 5834 5833 5832 5831 5830 5829 5828 5827 5825 5824 5823 5822 5821 5820 5819 5818 5818 5817 5816 5816 5815 5815 5815 5816 5815
5844 5843 5843 5843 5842 5842 5841 5841 5840 5839 5838 5837 5836 5835 5834 5833 5832 5832 5831 5830 5829 5828 5826 5825 5824 5823 5821 5820 5818 5817 5816 5815 5815 5814 5813 5812 5812 5811 5811 5811 5811 5811 5810
5841 5841 5841 5841 5840 5839 5839 5838 5837 5836 5835 5834 5833 5831 5830 5830 5829 5828 5827 5826 5825 5824 5822 5821 5820 5818 5817 5815 5814 5813 5812 5812 5810 5809 5808 5808 5807 5807 5806 5806 5805 5805 5805
5838 5838 5838 5837 5837 5836 5835 5835 5834 5833 5832 5830 5829 5828 5827 5826 5825 5824 5823 5822 5821 5819 5818 5817 5815 5814 5812 5811 5810 5809 5808 5806 5806 5805 5803 5803 5802 5801 5801 5800 5800 5799 5799
5835 5835 5834 5834 5834 5833 5832 5831 5830 5829 5828 5826 5825 5824 5823 5822 5821 5820 5819 5817 5816 5815 5814 5812 5811 5809 5808 5806 5805 5804 5803 5801 5800 5799 5798 5797 5796 5796 5795 5794 5794 5794 5793
5831 5831 5831 5830 5830 5829 5828 5827 5826 5825 5824 5822 5821 5820 5819 5818 5817 5815 5814 5813 5811 5810 5809 5807 5806 5804 5803 5801 5800 5798 5797 5796 5795 5794 5793 5792 5791 5790 5789 5788 5788 5787 5787
5828 5827 5827 5826 5826 5825 5824 5823 5822 5821 5820 5818 5817 5816 5815 5813 5812 5811 5810 5808 5807 5805 5804 5803 5801 5799 5798 5796 5795 5793 5792 5791 5789 5788 5788 5787 5785 5784 5783 5782 5781 5781 5781